Regional Weather Roundup
Issued by NWS

Home | Current Version | Previous Version | Graphics & Text | Print | Product List | Glossary On
Versions: 1 2 3 4 5 6 7 8 9 10 11 12 13 14 15 16 17 18 19 20 21 22 23 24 25 26 27 28 29 30 31 32 33 34 35 36 37 38 39 40 41 42 43 44 45 46 47 48 49 50
412
ASUS43 KMKX 220913
RWRWI

WISCONSIN REGIONAL WEATHER ROUNDUP
NATIONAL WEATHER SERVICE MILWAUKEE/SULLIVAN WI
400 AM CDT FRI MAY 22 2015

NOTE: "FAIR" INDICATES FEW OR NO CLOUDS BELOW 12,000 FEET WITH NO
SIGNIFICANT WEATHER AND/OR OBSTRUCTIONS TO VISIBILITY.

WIZ001-002-006>008-014>016-023>028-221000-
NORTHWEST WISCONSIN

CITY           SKY/WX    TMP DP  RH WIND       PRES   REMARKS
SUPERIOR ARPT  CLEAR     36  34  92 CALM      30.14R
ASHLAND        CLEAR     36  32  85 W5        30.14R WCI  32
HAYWARD        CLEAR     34  30  85 CALM      30.14R
SIREN          CLEAR     36  33  87 CALM      30.14R
CUMBERLAND     FAIR      43  32  65 N3        30.13R
RICE LAKE      FAIR      41  37  83 N3        30.15R
CHETEK         FAIR      41  38  89 CALM      30.13R
LADYSMITH      CLEAR     38  36  93 CALM      30.15R
EAU CLAIRE     CLEAR     41  40  96 NE3       30.11R FOG
MENOMONIE      CLEAR     47  37  69 CALM      30.12R
NEW RICHMOND   CLEAR     44  35  72 N3        30.14R
OSCEOLA        CLEAR     39  39  97 CALM      30.16S
$$

WIZ003>005-009-010-017-018-221000-
NORTH CENTRAL WISCONSIN

CITY           SKY/WX    TMP DP  RH WIND       PRES   REMARKS
MANITOWISH WTR CLEAR     32  32 100 CALM      30.12R
ARBOR VITAE    CLEAR     37  31  81 CALM      30.12R
WOODRUFF       CLEAR     37  31  81 CALM      30.12R
RHINELANDER    CLEAR     36  30  79 E3        30.13R
EAGLE RIVER    CLEAR     32  28  84 CALM      30.12R
LAND O LAKES   CLEAR     29  28  96 CALM      30.14R
PHILLIPS       CLEAR     33  32  98 CALM      30.12R
TOMAHAWK       CLEAR     30  28  94 CALM      30.13R
MEDFORD        CLEAR     37  33  87 SE3       30.12R
MERRILL        CLEAR     32  32  99 CALM      30.14R
$$

WIZ029-030-035-036-043>047-221000-
CENTRAL WISCONSIN

CITY           SKY/WX    TMP DP  RH WIND       PRES   REMARKS
WAUSAU         CLEAR     38  36  92 CALM      30.13R
MOSINEE        CLEAR     41  36  81 E5        30.14R
MARSHFIELD     CLEAR     40  33  76 E5        30.13R
STEVENS POINT  CLEAR     35  32  90 CALM      30.14R
WAUPACA        CLEAR     37  34  87 N5        30.14R WCI  34
WAUTOMA        NOT AVBL
WISC RAPIDS    CLEAR     41  35  79 CALM      30.14R
CAMP DOUGLAS   NOT AVBL
$$

WIZ011>013-019>022-031-037>040-048>050-221000-
NORTHEAST WISCONSIN

CITY           SKY/WX    TMP DP  RH WIND       PRES   REMARKS
ANTIGO         CLEAR     36  30  79 CALM      30.13R
SHAWANO        CLEAR     40  36  87 CALM      30.14R
OCONTO         CLEAR     31  31 100 CALM      30.13R
STURGEON BAY   CLEAR     36  28  75 NW3       30.15R
GREEN BAY      CLEAR     38  35  89 NW3       30.14R
MANITOWOC      NOT AVBL
APPLETON       CLEAR     37  28  70 N3        30.14R
CLINTONVILLE   CLEAR     36  36 100 CALM      30.14R FOG
OSHKOSH        CLEAR     47  28  47 E3        30.12R
$$

WIZ032>034-041-042-053>061-221000-
SOUTHWEST WISCONSIN

CITY           SKY/WX    TMP DP  RH WIND       PRES   REMARKS
LA CROSSE      CLEAR     47  42  83 CALM      30.11R
SPARTA         CLEAR     35  33  96 CALM      30.12R
VIROQUA        CLEAR     52  33  49 E3        30.10S
BOSCOBEL       CLEAR     40  38  93 CALM      30.12R
PRAIRIE DU CHI CLEAR     44  39  83 CALM      30.10R
PLATTEVILLE    CLEAR     50  38  65 CALM      30.10R
$$

WIZ056-057-062-063-064-067-068-221000-
SOUTH CENTRAL WISCONSIN

CITY           SKY/WX    TMP DP  RH WIND       PRES   REMARKS
REEDSBURG      CLEAR     44  40  86 CALM      30.11R
BARABOO/DELLS  CLEAR     41  37  85 CALM      30.11R
LONE ROCK      NOT AVBL
MINERAL POINT  CLEAR     52  36  54 E6        30.09R
MADISON        CLEAR     42  35  76 CALM      30.10R
MIDDLETON      CLEAR     44  37  75 CALM      30.11R
WATERTOWN      CLEAR     45  31  57 CALM      30.09R
MONROE         CLEAR     48  41  76 NE9       30.09R
JANESVILLE     CLEAR     46  34  61 E5        30.09R
$$

WIZ051-052-058>065-066-070>072-221000-
SOUTHEAST WISCONSIN

CITY           SKY/WX    TMP DP  RH WIND       PRES   REMARKS
MILWAUKEE      CLEAR     45  32  60 N5        30.11R
WAUKESHA       CLEAR     39  32  75 CALM      30.11R
MILWAUKEE/TIMM CLEAR     41  32  70 CALM      30.11R
RACINE         CLEAR     44  34  67 NE5       30.11R
BURLINGTON     CLEAR     42  32  68 CALM      30.09S
KENOSHA        CLEAR     45  36  70 NE6       30.10R
FOND DU LAC    CLEAR     39  30  70 N3        30.13R
SHEBOYGAN      CLEAR     34  31  88 CALM      30.13R
WEST BEND      CLEAR     37  34  87 CALM      30.11R
JUNEAU         CLEAR     45  27  49 E3        30.11R
$$

LSZ147-162-221000-
LAKE SUPERIOR

STATION/POSITION TIME  TEMP    WIND        PRES    WAVE
                       AIR SEA DIR/SP/G            HT/PER
                 (UTC) (F)     (DEG/KT/KT) (MB)    (FT/S)
W MID LAKE BUOY  0750   37 36   30/  6/  6   N/A     0
DEVILS ISLAND    0800   41      50/  3/  3   N/A
PORT WING        0800   40     170/  4/  5   N/A
SAXON HARBOR     0800   36     190/  2/  5   N/A
$$

LMZ867-665-643>646-221000-
LAKE MICHIGAN

STATION/POSITION TIME  TEMP    WIND        PRES    WAVE
                       AIR SEA DIR/SP/G            HT/PER
                 (UTC) (F)     (DEG/KT/KT) (MB)    (FT/S)
CHAMBERS ISLAND  0800   45     310/  6/  9   N/A
N MID LAKE BUOY  0750   40 36  320/  6/  6   N/A     1/ 3
SISTER BAY       0817   44      30/  6/  7   N/A
KEWAUNEE LAKESHO 0800          300/  5/  6   N/A
SHEBOYGAN LAKESH 0800          350/  7/  8   N/A
PORT WASHINGTON  0800   49     360/  3/  4   N/A
ATWATER BUOY     0800   46 44  320/  4/  6   N/A
MILWAUKEE LAKESH 0800   49      20/  6/  8   N/A
S MID LAKE BUOY  0750   41 38   10/  6/  8   N/A     1
KENOSHA   LAKESH 0800   49      10/ 11/ 13   N/A
$$

TC  - TEMPERATURE IN CELSIUS
VSB - VISIBILITY IN STATUTE MILES
WCI - WIND CHILL INDEX
HX  - HEAT INDEX




USA.gov is the U.S. government's official web portal to all federal, state and local government web resources and services.